FW9092 Weather Reports


time (UTC)temp
C
wind
direction
speed
KPH
gust
KPH
rain 1hr
cm
rain 24hr
cm
rain mn
cm
humidity
%
barometer
mb
20260508024504 20 26 0.0 0.0 0.00 0.00 0.00 85 981.9
20260508023003 20 26 0.0 0.0 0.00 0.00 0.00 85 981.9
20260508021504 20 26 0.0 0.0 0.00 0.00 0.00 84 981.8
20260508020005 20 26 0.0 0.0 0.00 0.00 0.00 84 981.8
20260508014503 20 26 0.0 0.0 0.00 0.00 0.00 84 981.7
20260508013003 20 26 0.0 0.0 0.00 0.00 0.00 84 981.6
20260508011505 21 26 0.0 0.0 0.00 0.00 0.00 84 981.3
20260508010011 21 26 0.0 0.0 0.00 0.00 0.00 84 981.3
20260508004503 21 26 0.0 0.0 0.00 0.00 0.00 84 981.2
20260508003004 21 26 0.0 0.0 0.00 0.00 0.00 84 981.1
20260508001502 21 26 0.0 0.0 0.00 0.00 0.00 83 981.0
20260508000005 21 26 0.0 0.0 0.00 0.00 0.00 82 980.9
20260507234504 21 26 0.0 0.0 0.00 0.00 0.00 82 980.8
20260507233004 21 26 0.0 0.0 0.00 0.00 0.00 81 980.6
20260507231504 22 26 0.0 0.0 0.00 0.00 0.00 79 980.5
20260507230006 22 26 0.0 0.0 0.00 0.00 0.00 78 980.3
20260507224504 22 26 0.0 0.0 0.00 0.00 0.00 77 980.0
20260507223004 22 26 0.0 0.0 0.00 0.00 0.00 77 980.0
20260507221507 23 26 0.0 0.0 0.00 0.00 0.00 76 980.1
20260507220004 23 26 0.0 0.0 0.00 0.00 0.00 75 980.3
20260507214503 23 26 0.0 0.0 0.00 0.00 0.00 74 980.1
20260507213002 25 26 0.0 0.0 0.00 0.00 0.00 72 980.1
20260507211502 25 26 0.0 0.0 0.00 0.00 0.00 70 980.1
20260507210023 26 26 0.0 0.0 0.00 0.00 0.00 69 980.0
20260507204502 26 26 0.0 0.0 0.00 0.00 0.00 68 980.0
20260507203004 26 26 0.0 0.0 0.00 0.00 0.00 67 979.9
20260507201505 27 26 0.0 0.0 0.00 0.00 0.00 66 980.0
20260507200006 28 26 0.0 0.0 0.00 0.00 0.00 64 980.0
20260507194503 28 26 0.0 0.0 0.00 0.00 0.00 63 980.3
20260507193004 28 26 0.0 0.0 0.00 0.00 0.00 63 980.5
20260507191502 28 26 0.0 0.0 0.00 0.00 0.00 63 980.6
20260507190006 28 26 0.0 0.0 0.00 0.00 0.00 63 980.8
20260507184505 28 26 0.0 0.0 0.00 0.00 0.00 63 980.9
20260507183002 28 26 0.0 0.0 0.00 0.00 0.00 64 981.0
20260507181503 28 26 0.0 0.0 0.00 0.00 0.00 65 981.3
20260507180006 27 26 0.0 0.0 0.00 0.00 0.00 66 981.4
20260507174506 27 26 0.0 0.0 0.00 0.00 0.00 66 982.0
20260507173002 26 26 0.0 0.0 0.00 0.00 0.00 68 982.2
20260507171502 26 26 0.0 0.0 0.00 0.00 0.00 70 982.3
20260507170005 25 26 0.0 0.0 0.00 0.00 0.00 71 982.6
20260507164503 25 26 0.0 0.0 0.00 0.00 0.00 72 982.9
20260507163003 23 26 0.0 0.0 0.00 0.00 0.00 76 983.0
20260507161502 23 26 0.0 0.0 0.00 0.00 0.00 78 983.3
20260507160005 22 26 0.0 0.0 0.00 0.00 0.00 78 983.5
20260507154502 22 26 0.0 0.0 0.00 0.00 0.00 80 983.4
20260507153004 21 26 0.0 0.0 0.00 0.00 0.00 81 983.6
20260507151502 21 26 0.0 0.0 0.00 0.00 0.00 82 983.7
20260507150006 21 26 0.0 0.0 0.00 0.00 0.00 83 983.8
20260507144502 21 26 0.0 0.0 0.00 0.00 0.00 84 983.9
20260507143004 20 26 0.0 0.0 0.00 0.00 0.00 84 984.0
20260507141501 20 26 0.0 0.0 0.00 0.00 0.00 84 983.8
20260507140009 20 26 0.0 0.0 0.00 0.00 0.00 83 983.5
20260507134503 20 26 0.0 0.0 0.00 0.00 0.00 84 983.3
20260507133002 20 26 0.0 0.0 0.00 0.00 0.00 84 983.0
20260507131502 20 26 0.0 0.0 0.00 0.00 0.00 86 982.7
20260507130008 20 26 0.0 0.0 0.00 0.00 0.00 86 982.6
20260507124501 20 26 0.0 0.0 0.00 0.00 0.00 86 982.7
20260507123002 20 26 0.0 0.0 0.00 0.00 0.00 87 982.6
20260507121502 20 26 0.0 0.0 0.00 0.00 0.00 87 982.4
20260507120005 20 26 0.0 0.0 0.00 0.00 0.00 87 982.4
20260507114502 19 26 0.0 0.0 0.00 0.00 0.00 87 982.4
20260507113002 19 26 0.0 0.0 0.00 0.00 0.00 87 982.4
20260507111503 19 26 0.0 0.0 0.00 0.00 0.00 87 982.3
20260507110004 19 26 0.0 0.0 0.00 0.00 0.00 87 982.0
20260507104503 19 26 0.0 0.0 0.00 0.00 0.00 87 982.1
20260507103001 19 26 0.0 0.0 0.00 0.00 0.00 88 981.9
20260507101502 19 26 0.0 0.0 0.00 0.00 0.00 88 981.8
20260507100004 19 26 0.0 0.0 0.00 0.00 0.00 88 981.7
20260507094501 19 26 0.0 0.0 0.00 0.00 0.00 87 981.7
20260507093001 19 26 0.0 0.0 0.00 0.00 0.00 88 981.6
20260507091501 19 26 0.0 0.0 0.00 0.00 0.00 88 981.4
20260507090004 19 26 0.0 0.0 0.00 0.00 0.00 88 981.4
20260507084500 19 26 0.0 0.0 0.00 0.00 0.00 88 981.4
20260507083001 19 26 0.0 0.0 0.00 0.00 0.00 88 981.5
20260507081501 19 26 0.0 0.0 0.00 0.00 0.00 87 981.5
20260507080004 19 26 0.0 0.0 0.00 0.00 0.00 87 981.6
20260507074500 19 26 0.0 0.0 0.00 0.00 0.00 87 981.7
20260507073001 19 26 0.0 0.0 0.00 0.00 0.00 86 981.7
20260507071501 19 26 0.0 0.0 0.00 0.00 0.00 86 982.0
20260507070009 19 26 0.0 0.0 0.00 0.00 0.00 85 981.7
20260507064500 20 26 0.0 0.0 0.00 0.00 0.00 85 981.8
20260507063000 20 26 0.0 0.0 0.00 0.00 0.00 85 982.0
20260507061502 20 26 0.0 0.0 0.00 0.00 0.00 85 982.2
20260507060005 20 26 0.0 0.0 0.00 0.00 0.00 85 982.3
20260507054509 20 26 0.0 0.0 0.00 0.00 0.00 86 982.4
20260507053004 20 26 0.0 0.0 0.00 0.00 0.00 86 982.5
20260507051504 20 26 0.0 0.0 0.00 0.00 0.00 86 982.7
20260507050012 20 26 0.0 0.0 0.00 0.00 0.00 85 983.0
20260507044505 20 26 0.0 0.0 0.00 0.00 0.00 85 983.2
20260507043009 20 26 0.0 0.0 0.00 0.00 0.00 85 983.4
20260507041503 20 26 0.0 0.0 0.00 0.00 0.00 86 983.3
20260507040005 20 26 0.0 0.0 0.00 0.00 0.00 86 983.3
20260507034507 20 26 0.0 0.0 0.00 0.00 0.00 85 983.5
20260507033010 20 26 0.0 0.0 0.00 0.00 0.00 85 983.5
20260507031502 20 26 0.0 0.0 0.00 0.00 0.00 85 983.4
20260507030004 20 26 0.0 0.0 0.00 0.00 0.00 84 983.4